Tracking 19415 objects as of 16-Dec-2018
HD Live streaming from Space Station
objects crossing your sky now

TOMSK-TPU 120

Track TOMSK-TPU 120 now!
10-day predictions
TOMSK-TPU 120 is classified as:


NORAD ID: 42910
Int'l Code: 1998-067MZ
Perigee: 359.3 km
Apogee: 367.5 km
Inclination: 51.6 °
Period: 91.7 minutes
Semi major axis: 6734 km
RCS: Unknown
Launch date: November 20, 1998
Source: Commonwealth of Independent States (former USSR) (CIS)
Launch site: TYURATAM MISSILE AND SPACE COMPLEX (TTMTR)

Uplink (MHz):
Downlink (MHz): 437.025
Beacon (MHz): 145.800
Mode: 9600bps FSK Voice
Call sign: RS4S
Status: Inactive

aabbcc
Your satellite tracking list
Your tracking list is empty




NASA's NSSDC Master Catalog

Two Line Element Set (TLE):
1 42910U 98067MZ  18349.87308326  .00019755  00000-0  15903-3 0  9996
2 42910  51.6357 162.0391 0006091 171.5991 293.1688 15.70918009 75870
Source of the keplerian elements: AMSAT